Location: ??
(34.7252°N, 135.5457°E)
Time: 07:55:53
(UTC+00:00)

Cosmos 1937 Rocket - Pass Details

Date: 24 September 2020
Orbit: 747 x 779 km, 74.0° (Epoch: 29 October)

Event Time Altitude Azimuth Distance (km) Brightness Sun altitude
Rises 18:51:51 0° 344° (NNW) 3,198 6.7 -24.4°
Reaches altitude 10° 18:54:13 10° 346° (NNW) 2,269 6.0 -23.9°
Maximum altitude 18:59:21 78° 72° (ENE) 768 3.5 -22.9°
Drops below altitude 10° 19:04:28 10° 159° (SSE) 2,259 6.0 -21.9°
Sets 19:06:50 0° 161° (SSE) 3,182 6.8 -21.4°
